Time,TemperatureF,DewpointF,PressureIn,WindDirection,WindDirectionDegrees,WindSpeedMPH,WindSpeedGustMPH,Humidity,HourlyPrecipIn,Conditions,Clouds,dailyrainin,SoftwareType,DateUTC
2013-02-17 00:07:00,15.2,8.0,30.10,NNE,16,9.0,17.0,72,0.00,,,0.00,weatherlink.com 1.10,2013-02-17 05:07:00,
2013-02-17 00:22:00,15.2,8.0,30.11,West,281,2.0,13.0,72,0.00,,,0.00,weatherlink.com 1.10,2013-02-17 05:22:00,
2013-02-17 00:38:00,15.0,8.0,30.11,SSW,205,5.0,11.0,73,0.00,,,0.00,weatherlink.com 1.10,2013-02-17 05:38:00,
2013-02-17 00:53:00,14.6,7.0,30.11,WSW,248,6.0,18.0,72,0.00,,,0.00,weatherlink.com 1.10,2013-02-17 05:53:00,
2013-02-17 01:08:00,14.4,6.0,30.11,WSW,246,6.0,10.0,70,0.00,,,0.00,weatherlink.com 1.10,2013-02-17 06:08:00,
2013-02-17 01:23:00,14.0,6.0,30.12,SW,221,6.0,9.0,70,0.00,,,0.00,weatherlink.com 1.10,2013-02-17 06:23:00,
2013-02-17 01:38:00,14.1,6.0,30.12,WNW,286,10.0,11.0,69,0.00,,,0.00,weatherlink.com 1.10,2013-02-17 06:38:00,
2013-02-17 01:53:00,14.0,6.0,30.13,NW,325,3.0,17.0,69,0.00,,,0.00,weatherlink.com 1.10,2013-02-17 06:53:00,
2013-02-17 02:08:00,13.7,6.0,30.13,NW,321,4.0,11.0,71,0.00,,,0.00,weatherlink.com 1.10,2013-02-17 07:08:00,
2013-02-17 02:23:00,13.6,6.0,30.12,WNW,300,5.0,12.0,71,0.00,,,0.00,weatherlink.com 1.10,2013-02-17 07:23:00,
2013-02-17 02:38:00,13.3,6.0,30.13,WNW,296,6.0,14.0,71,0.00,,,0.00,weatherlink.com 1.10,2013-02-17 07:38:00,
2013-02-17 02:53:00,13.4,5.0,30.13,NW,319,9.0,15.0,70,0.00,,,0.00,weatherlink.com 1.10,2013-02-17 07:53:00,
2013-02-17 03:08:00,13.3,5.0,30.13,NE,45,7.0,17.0,70,0.00,,,0.00,weatherlink.com 1.10,2013-02-17 08:08:00,
2013-02-17 03:23:00,13.1,6.0,30.14,NW,312,4.0,17.0,72,0.00,,,0.00,weatherlink.com 1.10,2013-02-17 08:23:00,
2013-02-17 03:39:00,13.0,6.0,30.14,SW,230,8.0,13.0,72,0.00,,,0.00,weatherlink.com 1.10,2013-02-17 08:39:00,
2013-02-17 03:53:00,13.0,6.0,30.14,SW,228,6.0,15.0,72,0.00,,,0.00,weatherlink.com 1.10,2013-02-17 08:53:00,
2013-02-17 04:08:00,12.9,6.0,30.14,West,271,4.0,13.0,73,0.00,,,0.00,weatherlink.com 1.10,2013-02-17 09:08:00,
2013-02-17 04:23:00,12.8,6.0,30.15,NW,314,7.0,15.0,73,0.00,,,0.00,weatherlink.com 1.10,2013-02-17 09:23:00,
2013-02-17 04:38:00,12.9,6.0,30.15,NE,35,5.0,15.0,73,0.00,,,0.00,weatherlink.com 1.10,2013-02-17 09:38:00,
2013-02-17 04:53:00,13.0,6.0,30.16,West,268,4.0,17.0,72,0.00,,,0.00,weatherlink.com 1.10,2013-02-17 09:53:00,
2013-02-17 05:05:00,13.2,5.9,30.16,SSW,209,7.0,7.0,72,0.00,,,0.00,Wunderground v.1.15,2013-02-17 10:05:00,
2013-02-17 05:15:00,13.0,5.7,30.16,West,280,4.0,6.0,72,0.00,,,0.00,Wunderground v.1.15,2013-02-17 10:15:00,
2013-02-17 05:25:00,13.0,6.0,30.17,NNE,18,6.0,11.0,73,0.00,,,0.00,Wunderground v.1.15,2013-02-17 10:25:00,
2013-02-17 05:30:00,13.1,5.8,30.16,WNW,297,6.0,6.0,72,0.00,,,0.00,Wunderground v.1.15,2013-02-17 10:30:00,
2013-02-17 05:39:00,13.4,6.0,30.17,WSW,252,6.0,15.0,71,0.00,,,0.00,weatherlink.com 1.10,2013-02-17 10:39:00,
2013-02-17 05:45:00,13.3,6.0,30.17,West,273,5.0,7.0,72,0.00,,,0.00,Wunderground v.1.15,2013-02-17 10:45:00,
2013-02-17 05:55:00,13.4,6.0,30.18,WNW,297,6.0,21.0,72,0.00,,,0.00,weatherlink.com 1.10,2013-02-17 10:55:00,
2013-02-17 06:00:00,13.3,6.0,30.18,NW,306,5.0,5.0,72,0.00,,,0.00,Wunderground v.1.15,2013-02-17 11:00:00,
2013-02-17 06:09:00,13.4,6.0,30.17,NW,319,4.0,30.0,72,0.00,,,0.00,weatherlink.com 1.10,2013-02-17 11:09:00,
2013-02-17 06:15:00,13.5,5.8,30.18,SW,225,5.0,7.0,71,0.00,,,0.00,Wunderground v.1.15,2013-02-17 11:15:00,
2013-02-17 06:25:00,13.6,5.9,30.19,WNW,286,6.0,6.0,71,0.00,,,0.00,Wunderground v.1.15,2013-02-17 11:25:00,
2013-02-17 06:30:00,13.4,5.7,30.19,North,355,5.0,6.0,71,0.00,,,0.00,Wunderground v.1.15,2013-02-17 11:30:00,
2013-02-17 06:40:00,13.5,6.1,30.20,WNW,297,5.0,5.0,72,0.00,,,0.00,Wunderground v.1.15,2013-02-17 11:40:00,
2013-02-17 06:45:00,13.4,6.1,30.20,WSW,238,5.0,6.0,72,0.00,,,0.00,Wunderground v.1.15,2013-02-17 11:45:00,
2013-02-17 06:55:00,13.7,6.3,30.20,WSW,250,7.0,8.0,72,0.00,,,0.00,Wunderground v.1.15,2013-02-17 11:55:00,
2013-02-17 07:00:00,13.7,6.3,30.20,West,277,6.0,6.0,72,0.00,,,0.00,Wunderground v.1.15,2013-02-17 12:00:00,
2013-02-17 07:10:00,13.6,6.5,30.21,NW,319,6.0,6.0,73,0.00,,,0.00,Wunderground v.1.15,2013-02-17 12:10:00,
2013-02-17 07:15:00,13.5,6.5,30.21,West,275,5.0,7.0,73,0.00,,,0.00,Wunderground v.1.15,2013-02-17 12:15:00,
2013-02-17 07:20:00,13.6,6.5,30.21,SW,234,6.0,6.0,73,0.00,,,0.00,Wunderground v.1.15,2013-02-17 12:20:00,
2013-02-17 07:26:00,13.6,7.0,30.22,North,355,5.0,18.0,74,0.00,,,0.00,weatherlink.com 1.10,2013-02-17 12:26:00,
2013-02-17 07:35:00,13.6,7.1,30.21,WSW,240,6.0,7.0,75,0.00,,,0.00,Wunderground v.1.15,2013-02-17 12:35:00,
2013-02-17 07:42:00,13.4,7.0,30.22,West,260,2.0,13.0,76,0.00,,,0.00,weatherlink.com 1.10,2013-02-17 12:42:00,
2013-02-17 07:50:00,13.4,7.2,30.22,SW,225,4.0,4.0,76,0.00,,,0.00,Wunderground v.1.15,2013-02-17 12:50:00,
2013-02-17 07:56:00,13.4,7.0,30.23,West,280,4.0,15.0,76,0.00,,,0.00,weatherlink.com 1.10,2013-02-17 12:56:00,
2013-02-17 08:05:00,13.5,7.3,30.23,NNW,328,5.0,10.0,76,0.00,,,0.00,Wunderground v.1.15,2013-02-17 13:05:00,
2013-02-17 08:10:00,13.6,7.4,30.24,NNW,335,5.0,5.0,76,0.00,,,0.00,Wunderground v.1.15,2013-02-17 13:10:00,
2013-02-17 08:15:00,13.6,7.4,30.24,NNW,342,6.0,6.0,76,0.00,,,0.00,Wunderground v.1.15,2013-02-17 13:15:00,
2013-02-17 08:25:00,13.7,7.5,30.24,WNW,292,5.0,6.0,76,0.00,,,0.00,Wunderground v.1.15,2013-02-17 13:25:00,
2013-02-17 08:30:00,13.7,7.5,30.24,WNW,293,5.0,5.0,76,0.00,,,0.00,Wunderground v.1.15,2013-02-17 13:30:00,
2013-02-17 08:35:00,13.7,7.5,30.24,West,279,4.0,5.0,76,0.00,,,0.00,Wunderground v.1.15,2013-02-17 13:35:00,
2013-02-17 08:44:00,14.0,7.0,30.25,WSW,241,7.0,14.0,75,0.00,,,0.00,weatherlink.com 1.10,2013-02-17 13:44:00,
2013-02-17 08:50:00,14.1,7.6,30.25,NNE,30,6.0,6.0,75,0.00,,,0.00,Wunderground v.1.15,2013-02-17 13:50:00,
2013-02-17 08:55:00,14.2,7.7,30.26,West,279,5.0,6.0,75,0.00,,,0.00,Wunderground v.1.15,2013-02-17 13:55:00,
2013-02-17 09:05:00,14.6,7.8,30.26,West,259,6.0,6.0,74,0.00,,,0.00,Wunderground v.1.15,2013-02-17 14:05:00,
2013-02-17 09:14:00,14.9,8.0,30.27,SSW,207,6.0,16.0,73,0.00,,,0.00,weatherlink.com 1.10,2013-02-17 14:14:00,
2013-02-17 09:20:00,15.1,7.7,30.27,NW,317,6.0,6.0,72,0.00,,,0.00,Wunderground v.1.15,2013-02-17 14:20:00,
2013-02-17 09:25:00,15.2,7.5,30.27,SW,221,5.0,6.0,71,0.00,,,0.00,Wunderground v.1.15,2013-02-17 14:25:00,
2013-02-17 09:35:00,15.5,7.8,30.27,NW,324,5.0,8.0,71,0.00,,,0.00,Wunderground v.1.15,2013-02-17 14:35:00,
2013-02-17 09:40:00,15.7,8.0,30.27,NNW,340,5.0,8.0,71,0.00,,,0.00,Wunderground v.1.15,2013-02-17 14:40:00,
2013-02-17 09:45:00,15.8,8.1,30.28,WSW,252,5.0,8.0,71,0.00,,,0.00,Wunderground v.1.15,2013-02-17 14:45:00,
2013-02-17 09:55:00,16.1,8.0,30.28,WSW,254,4.0,7.0,70,0.00,,,0.00,Wunderground v.1.15,2013-02-17 14:55:00,
2013-02-17 10:00:00,16.3,8.0,30.28,SW,216,2.0,11.0,70,0.00,,,0.00,weatherlink.com 1.10,2013-02-17 15:00:00,
2013-02-17 10:10:00,16.8,8.4,30.27,West,267,4.0,5.0,69,0.00,,,0.00,Wunderground v.1.15,2013-02-17 15:10:00,
2013-02-17 10:15:00,17.1,7.7,30.28,NNE,13,5.0,5.0,66,0.00,,,0.00,Wunderground v.1.15,2013-02-17 15:15:00,
2013-02-17 10:20:00,17.4,8.0,30.28,NNE,18,5.0,5.0,66,0.00,,,0.00,Wunderground v.1.15,2013-02-17 15:20:00,
2013-02-17 10:25:00,17.6,8.2,30.28,ENE,70,4.0,7.0,66,0.00,,,0.00,Wunderground v.1.15,2013-02-17 15:25:00,
2013-02-17 10:30:00,18.0,8.0,30.28,West,265,7.0,11.0,65,0.00,,,0.00,weatherlink.com 1.10,2013-02-17 15:30:00,
2013-02-17 10:40:00,18.6,7.4,30.28,WNW,284,5.0,5.0,61,0.00,,,0.00,Wunderground v.1.15,2013-02-17 15:40:00,
2013-02-17 10:45:00,19.0,7.0,30.29,West,281,5.0,15.0,60,0.00,,,0.00,weatherlink.com 1.10,2013-02-17 15:45:00,
2013-02-17 10:55:00,19.4,7.4,30.29,NNE,17,6.0,6.0,59,0.00,,,0.00,Wunderground v.1.15,2013-02-17 15:55:00,
2013-02-17 11:00:00,19.6,8.0,30.29,SW,234,5.0,5.0,60,0.00,,,0.00,Wunderground v.1.15,2013-02-17 16:00:00,
2013-02-17 11:10:00,20.0,7.2,30.30,WNW,284,5.0,6.0,57,0.00,,,0.00,Wunderground v.1.15,2013-02-17 16:10:00,
2013-02-17 11:17:00,20.3,7.0,30.30,SSW,204,8.0,19.0,56,0.00,,,0.00,weatherlink.com 1.10,2013-02-17 16:17:00,
2013-02-17 11:25:00,20.7,7.1,30.30,SW,224,7.0,10.0,55,0.00,,,0.00,Wunderground v.1.15,2013-02-17 16:25:00,
2013-02-17 11:32:00,20.9,7.0,30.31,NW,318,2.0,14.0,54,0.00,,,0.00,weatherlink.com 1.10,2013-02-17 16:32:00,
2013-02-17 11:40:00,21.5,9.0,30.30,NNW,339,4.0,6.0,58,0.00,,,0.00,Wunderground v.1.15,2013-02-17 16:40:00,
2013-02-17 11:45:00,21.6,7.9,30.31,WNW,285,5.0,6.0,55,0.00,,,0.00,Wunderground v.1.15,2013-02-17 16:45:00,
2013-02-17 11:55:00,22.0,9.5,30.31,WSW,253,4.0,6.0,58,0.00,,,0.00,Wunderground v.1.15,2013-02-17 16:55:00,
2013-02-17 12:00:00,22.0,9.8,30.31,North,355,4.0,4.0,59,0.00,,,0.00,Wunderground v.1.15,2013-02-17 17:00:00,
2013-02-17 12:10:00,23.1,11.3,30.30,NW,308,4.0,6.0,60,0.00,,,0.00,Wunderground v.1.15,2013-02-17 17:10:00,
2013-02-17 12:15:00,23.3,9.9,30.30,WSW,252,4.0,6.0,56,0.00,,,0.00,Wunderground v.1.15,2013-02-17 17:15:00,
2013-02-17 12:25:00,23.6,11.0,30.30,WNW,282,4.0,5.0,58,0.00,,,0.00,Wunderground v.1.15,2013-02-17 17:25:00,
2013-02-17 12:34:00,23.6,9.0,30.30,SW,236,2.0,13.0,55,0.00,,,0.00,weatherlink.com 1.10,2013-02-17 17:34:00,
2013-02-17 12:40:00,23.7,10.7,30.30,WNW,298,4.0,4.0,57,0.00,,,0.00,Wunderground v.1.15,2013-02-17 17:40:00,
2013-02-17 12:45:00,24.2,9.9,30.30,West,273,4.0,4.0,54,0.00,,,0.00,Wunderground v.1.15,2013-02-17 17:45:00,
2013-02-17 12:55:00,24.9,9.3,30.30,NW,310,4.0,5.0,51,0.00,,,0.00,Wunderground v.1.15,2013-02-17 17:55:00,
2013-02-17 13:04:00,25.3,12.0,30.30,NNW,348,4.0,10.0,57,0.00,,,0.00,weatherlink.com 1.10,2013-02-17 18:04:00,
2013-02-17 13:10:00,25.5,10.3,30.30,North,5,4.0,5.0,52,0.00,,,0.00,Wunderground v.1.15,2013-02-17 18:10:00,
2013-02-17 13:15:00,25.8,11.8,30.29,NW,304,4.0,5.0,55,0.00,,,0.00,Wunderground v.1.15,2013-02-17 18:15:00,
2013-02-17 13:20:00,26.5,11.2,30.29,WNW,290,4.0,4.0,52,0.00,,,0.00,Wunderground v.1.15,2013-02-17 18:20:00,
2013-02-17 13:30:00,25.9,10.2,30.29,NW,318,6.0,6.0,51,0.00,,,0.00,Wunderground v.1.15,2013-02-17 18:30:00,
2013-02-17 13:40:00,26.5,11.2,30.29,West,263,6.0,6.0,52,0.00,,,0.00,Wunderground v.1.15,2013-02-17 18:40:00,
2013-02-17 13:45:00,27.1,13.5,30.29,NNW,348,5.0,6.0,56,0.00,,,0.00,Wunderground v.1.15,2013-02-17 18:45:00,
2013-02-17 13:55:00,27.4,9.8,30.29,WNW,302,5.0,5.0,47,0.00,,,0.00,Wunderground v.1.15,2013-02-17 18:55:00,
2013-02-17 14:00:00,26.8,9.7,30.30,NW,314,6.0,6.0,48,0.00,,,0.00,Wunderground v.1.15,2013-02-17 19:00:00,
2013-02-17 14:05:00,27.0,12.5,30.29,WNW,283,5.0,6.0,54,0.00,,,0.00,Wunderground v.1.15,2013-02-17 19:05:00,
2013-02-17 14:15:00,26.9,11.2,30.29,NNE,27,6.0,7.0,51,0.00,,,0.00,Wunderground v.1.15,2013-02-17 19:15:00,
2013-02-17 14:25:00,26.6,10.9,30.29,WNW,282,5.0,5.0,51,0.00,,,0.00,Wunderground v.1.15,2013-02-17 19:25:00,
2013-02-17 14:30:00,26.7,9.6,30.29,North,5,5.0,5.0,48,0.00,,,0.00,Wunderground v.1.15,2013-02-17 19:30:00,
2013-02-17 14:35:00,26.3,9.7,30.29,NW,312,5.0,6.0,49,0.00,,,0.00,Wunderground v.1.15,2013-02-17 19:35:00,
2013-02-17 14:40:00,26.4,10.3,30.29,NW,306,5.0,5.0,50,0.00,,,0.00,Wunderground v.1.15,2013-02-17 19:40:00,
2013-02-17 14:45:00,27.2,11.4,30.30,NW,320,5.0,5.0,51,0.00,,,0.00,Wunderground v.1.15,2013-02-17 19:45:00,
2013-02-17 14:50:00,27.6,12.0,30.29,NW,326,5.0,10.0,53,0.00,,,0.00,weatherlink.com 1.10,2013-02-17 19:50:00,
2013-02-17 15:00:00,28.2,13.7,30.29,WNW,286,5.0,5.0,54,0.00,,,0.00,Wunderground v.1.15,2013-02-17 20:00:00,
2013-02-17 15:07:00,28.1,11.0,30.29,West,279,6.0,16.0,48,0.00,,,0.00,weatherlink.com 1.10,2013-02-17 20:07:00,
2013-02-17 15:15:00,28.5,12.6,30.29,WNW,282,4.0,5.0,51,0.00,,,0.00,Wunderground v.1.15,2013-02-17 20:15:00,
2013-02-17 15:20:00,28.2,10.5,30.29,WSW,245,4.0,10.0,47,0.00,,,0.00,Wunderground v.1.15,2013-02-17 20:20:00,
2013-02-17 15:25:00,27.4,9.8,30.30,North,360,5.0,10.0,47,0.00,,,0.00,Wunderground v.1.15,2013-02-17 20:25:00,
2013-02-17 15:35:00,27.6,10.0,30.30,NNW,327,4.0,6.0,47,0.00,,,0.00,Wunderground v.1.15,2013-02-17 20:35:00,
2013-02-17 15:40:00,28.0,10.8,30.30,West,264,5.0,6.0,48,0.00,,,0.00,Wunderground v.1.15,2013-02-17 20:40:00,
2013-02-17 15:45:00,27.3,8.7,30.30,North,355,5.0,6.0,45,0.00,,,0.00,Wunderground v.1.15,2013-02-17 20:45:00,
2013-02-17 15:51:00,27.6,11.0,30.30,NW,308,5.0,10.0,50,0.00,,,0.00,weatherlink.com 1.10,2013-02-17 20:51:00,
2013-02-17 16:00:00,28.6,10.9,30.30,NW,304,4.0,4.0,47,0.00,,,0.00,Wunderground v.1.15,2013-02-17 21:00:00,
2013-02-17 16:08:00,28.2,11.0,30.30,NNW,336,2.0,12.0,48,0.00,,,0.00,weatherlink.com 1.10,2013-02-17 21:08:00,
2013-02-17 16:15:00,28.1,11.4,30.30,NW,314,5.0,5.0,49,0.00,,,0.00,Wunderground v.1.15,2013-02-17 21:15:00,
2013-02-17 16:20:00,28.2,11.9,30.30,WNW,284,5.0,5.0,50,0.00,,,0.00,Wunderground v.1.15,2013-02-17 21:20:00,
2013-02-17 16:30:00,27.9,10.2,30.31,WNW,301,5.0,6.0,47,0.00,,,0.00,Wunderground v.1.15,2013-02-17 21:30:00,
2013-02-17 16:35:00,28.2,10.5,30.31,West,271,4.0,10.0,47,0.00,,,0.00,Wunderground v.1.15,2013-02-17 21:35:00,
2013-02-17 16:40:00,28.8,12.9,30.31,WNW,300,4.0,6.0,51,0.00,,,0.00,Wunderground v.1.15,2013-02-17 21:40:00,
2013-02-17 16:52:00,28.1,9.0,30.32,NW,311,5.0,9.0,45,0.00,,,0.00,weatherlink.com 1.10,2013-02-17 21:52:00,
2013-02-17 17:07:00,27.7,10.0,30.31,WSW,255,5.0,10.0,48,0.00,,,0.00,weatherlink.com 1.10,2013-02-17 22:07:00,
2013-02-17 17:22:00,28.9,12.0,30.31,WNW,296,5.0,9.0,49,0.00,,,0.00,weatherlink.com 1.10,2013-02-17 22:22:00,
2013-02-17 17:37:00,27.4,11.0,30.32,WNW,300,4.0,11.0,50,0.00,,,0.00,weatherlink.com 1.10,2013-02-17 22:37:00,
2013-02-17 17:53:00,27.2,10.0,30.33,West,262,4.0,11.0,49,0.00,,,0.00,weatherlink.com 1.10,2013-02-17 22:53:00,
2013-02-17 18:08:00,26.3,10.0,30.33,NW,320,3.0,8.0,51,0.00,,,0.00,weatherlink.com 1.10,2013-02-17 23:08:00,
2013-02-17 18:23:00,24.9,10.0,30.34,NW,313,2.0,7.0,54,0.00,,,0.00,weatherlink.com 1.10,2013-02-17 23:23:00,
2013-02-17 18:38:00,24.2,10.0,30.34,WNW,292,7.0,7.0,56,0.00,,,0.00,weatherlink.com 1.10,2013-02-17 23:38:00,
2013-02-17 18:53:00,24.0,10.0,30.34,WNW,284,3.0,7.0,55,0.00,,,0.00,weatherlink.com 1.10,2013-02-17 23:53:00,
2013-02-17 19:08:00,23.6,10.0,30.35,North,9,2.0,8.0,57,0.00,,,0.00,weatherlink.com 1.10,2013-02-18 00:08:00,
2013-02-17 19:23:00,23.7,10.0,30.35,NW,311,2.0,10.0,57,0.00,,,0.00,weatherlink.com 1.10,2013-02-18 00:23:00,
2013-02-17 19:38:00,23.5,10.0,30.35,WNW,296,2.0,7.0,57,0.00,,,0.00,weatherlink.com 1.10,2013-02-18 00:38:00,
2013-02-17 19:53:00,23.7,10.0,30.35,WNW,302,3.0,5.0,56,0.00,,,0.00,weatherlink.com 1.10,2013-02-18 00:53:00,
2013-02-17 20:08:00,23.8,10.0,30.36,West,279,1.0,5.0,56,0.00,,,0.00,weatherlink.com 1.10,2013-02-18 01:08:00,
2013-02-17 20:38:00,23.8,10.0,30.36,NNW,329,2.0,10.0,56,0.00,,,0.00,weatherlink.com 1.10,2013-02-18 01:38:00,
2013-02-17 20:53:00,23.4,10.0,30.36,NW,317,4.0,5.0,57,0.00,,,0.00,weatherlink.com 1.10,2013-02-18 01:53:00,
2013-02-17 21:08:00,23.5,10.0,30.37,NW,304,3.0,7.0,56,0.00,,,0.00,weatherlink.com 1.10,2013-02-18 02:08:00,
2013-02-17 21:23:00,23.6,10.0,30.38,WNW,286,2.0,6.0,57,0.00,,,0.00,weatherlink.com 1.10,2013-02-18 02:23:00,
2013-02-17 21:38:00,23.5,10.0,30.38,NW,321,3.0,6.0,56,0.00,,,0.00,weatherlink.com 1.10,2013-02-18 02:38:00,
2013-02-17 21:53:00,23.6,10.0,30.39,NW,304,3.0,6.0,56,0.00,,,0.00,weatherlink.com 1.10,2013-02-18 02:53:00,
2013-02-17 22:08:00,23.5,10.0,30.38,NW,306,3.0,7.0,57,0.00,,,0.00,weatherlink.com 1.10,2013-02-18 03:08:00,
2013-02-17 22:23:00,23.6,10.0,30.38,NW,322,3.0,6.0,57,0.00,,,0.00,weatherlink.com 1.10,2013-02-18 03:23:00,
2013-02-17 22:38:00,23.8,10.0,30.38,WNW,300,4.0,7.0,57,0.00,,,0.00,weatherlink.com 1.10,2013-02-18 03:38:00,
2013-02-17 22:53:00,23.8,10.0,30.38,WNW,302,3.0,7.0,56,0.00,,,0.00,weatherlink.com 1.10,2013-02-18 03:53:00,
2013-02-17 23:08:00,24.1,11.0,30.38,NW,304,1.0,6.0,57,0.00,,,0.00,weatherlink.com 1.10,2013-02-18 04:08:00,
2013-02-17 23:23:00,24.1,10.0,30.37,NW,304,3.0,6.0,56,0.00,,,0.00,weatherlink.com 1.10,2013-02-18 04:23:00,
2013-02-17 23:38:00,24.3,11.0,30.38,NW,311,2.0,7.0,57,0.00,,,0.00,weatherlink.com 1.10,2013-02-18 04:38:00,
2013-02-17 23:53:00,24.7,11.0,30.38,NNW,332,3.0,7.0,56,0.00,,,0.00,weatherlink.com 1.10,2013-02-18 04:53:00,